Radiation Dose at Monitoring Post of Fukushima Daini Nuclear Power Station
Date,Time,MP-1(microSv/h),MP-2(microSv/h),MP-3(microSv/h),MP-4(microSv/h),MP-5(microSv/h),MP-6(microSv/h),MP-7(microSv/h),Wind Direction,Wind Velocity(m/s),Rain
2022/07/20,00:00,0.150,0.139,0.219,0.213,0.213,0.119,0.077,-,CALM,No
2022/07/20,00:10,0.149,0.140,0.222,0.213,0.216,0.119,0.077,south-southeast,1.0,No
2022/07/20,00:20,0.149,0.139,0.221,0.211,0.215,0.118,0.076,-,CALM,No
2022/07/20,00:30,0.151,0.140,0.219,0.212,0.214,0.118,0.077,southwest,0.7,No
2022/07/20,00:40,0.150,0.141,0.221,0.214,0.214,0.119,0.077,south-southwest,1.8,No
2022/07/20,00:50,0.148,0.140,0.220,0.212,0.216,0.119,0.077,south,1.4,Yes
2022/07/20,01:00,0.151,0.139,0.218,0.211,0.215,0.119,0.077,south-southwest,1.6,Yes
2022/07/20,01:10,0.151,0.141,0.223,0.214,0.214,0.120,0.078,southwest,2.0,Yes
2022/07/20,01:20,0.150,0.141,0.223,0.214,0.219,0.121,0.080,south,1.3,Yes
2022/07/20,01:30,0.151,0.141,0.222,0.213,0.218,0.121,0.079,-,CALM,Yes
2022/07/20,01:40,0.152,0.142,0.224,0.217,0.215,0.122,0.080,west-southwest,1.0,No
2022/07/20,01:50,0.151,0.141,0.220,0.214,0.217,0.120,0.079,southwest,0.9,No
2022/07/20,02:00,0.150,0.140,0.219,0.213,0.216,0.120,0.078,south-southwest,1.2,No
2022/07/20,02:10,0.152,0.142,0.223,0.215,0.214,0.120,0.079,south,2.7,Yes
2022/07/20,02:20,0.151,0.141,0.221,0.215,0.216,0.121,0.078,south,2.7,Yes
2022/07/20,02:30,0.150,0.139,0.219,0.212,0.216,0.119,0.078,south-southeast,3.8,Yes
2022/07/20,02:40,0.150,0.141,0.222,0.214,0.214,0.120,0.078,south-southeast,3.0,Yes
2022/07/20,02:50,0.151,0.140,0.221,0.214,0.215,0.120,0.078,south,3.2,Yes
2022/07/20,03:00,0.149,0.139,0.219,0.212,0.215,0.119,0.077,southeast,4.2,Yes
2022/07/20,03:10,0.151,0.140,0.221,0.214,0.213,0.119,0.078,south-southeast,4.0,Yes
2022/07/20,03:20,0.150,0.140,0.221,0.214,0.214,0.120,0.078,south-southeast,2.6,Yes
2022/07/20,03:30,0.149,0.139,0.219,0.211,0.215,0.119,0.077,south-southeast,2.1,Yes
2022/07/20,03:40,0.151,0.141,0.221,0.213,0.212,0.120,0.078,south-southeast,3.0,Yes
2022/07/20,03:50,0.150,0.140,0.220,0.212,0.215,0.120,0.077,south-southeast,2.4,Yes
2022/07/20,04:00,0.148,0.141,0.219,0.211,0.216,0.118,0.077,east-southeast,0.9,Yes
2022/07/20,04:10,0.151,0.140,0.221,0.214,0.213,0.118,0.078,south-southeast,0.9,Yes
2022/07/20,04:20,0.150,0.139,0.219,0.212,0.215,0.120,0.076,southwest,1.2,Yes
2022/07/20,04:30,0.149,0.140,0.220,0.212,0.216,0.119,0.077,west-northwest,3.6,No
2022/07/20,04:40,0.150,0.140,0.221,0.214,0.214,0.119,0.077,west,7.7,Yes
2022/07/20,04:50,0.149,0.139,0.218,0.212,0.214,0.119,0.077,west,8.6,Yes
2022/07/20,05:00,0.148,0.142,0.220,0.210,0.217,0.119,0.077,west-northwest,7.8,No
2022/07/20,05:10,0.150,0.140,0.221,0.213,0.212,0.118,0.077,west-northwest,6.8,No
2022/07/20,05:20,0.150,0.139,0.219,0.213,0.213,0.119,0.076,north-northwest,3.6,No
2022/07/20,05:30,0.149,0.141,0.222,0.212,0.216,0.119,0.076,east-northeast,2.3,No
2022/07/20,05:40,0.149,0.140,0.220,0.214,0.215,0.118,0.076,north-northeast,1.5,No
2022/07/20,05:50,0.150,0.139,0.219,0.214,0.212,0.119,0.077,north-northwest,2.7,Yes
2022/07/20,06:00,0.149,0.138,0.221,0.211,0.212,0.119,0.076,north-northwest,2.9,No
2022/07/20,06:10,0.148,0.140,0.220,0.211,0.216,0.119,0.076,north-northwest,2.8,No
2022/07/20,06:20,0.150,0.140,0.219,0.214,0.215,0.118,0.077,north,2.7,No
2022/07/20,06:30,0.150,0.140,0.218,0.213,0.215,0.119,0.076,north-northwest,2.4,No
2022/07/20,06:40,0.149,0.139,0.222,0.210,0.212,0.119,0.076,northwest,1.3,No
2022/07/20,06:50,0.148,0.139,0.220,0.210,0.212,0.118,0.076,northwest,4.7,No
2022/07/20,07:00,0.151,0.139,0.218,0.211,0.213,0.118,0.076,northwest,5.0,No
2022/07/20,07:10,0.150,0.140,0.218,0.214,0.216,0.119,0.076,northwest,6.1,No
2022/07/20,07:20,0.149,0.142,0.219,0.213,0.215,0.119,0.077,northwest,5.3,No
2022/07/20,07:30,0.148,0.140,0.222,0.212,0.213,0.118,0.077,west-northwest,4.8,No
2022/07/20,07:40,0.149,0.141,0.222,0.211,0.213,0.120,0.077,northwest,5.9,No
2022/07/20,07:50,0.148,0.141,0.220,0.212,0.212,0.119,0.077,northwest,5.9,No
2022/07/20,08:00,0.149,0.140,0.222,0.211,0.214,0.119,0.076,northwest,6.2,No
2022/07/20,08:10,0.149,0.140,0.220,0.210,0.214,0.119,0.077,northwest,5.8,No
2022/07/20,08:20,0.148,0.141,0.220,0.211,0.214,0.119,0.077,west-northwest,3.6,No
2022/07/20,08:30,0.150,0.140,0.221,0.214,0.214,0.119,0.078,northwest,4.3,No
2022/07/20,08:40,0.149,0.141,0.221,0.214,0.215,0.119,0.077,northwest,3.3,No
2022/07/20,08:50,0.150,0.141,0.222,0.213,0.215,0.119,0.079,north,2.8,No
2022/07/20,09:00,0.149,0.141,0.221,0.213,0.215,0.119,0.077,north-northeast,3.5,No
2022/07/20,09:10,0.150,0.141,0.221,0.213,0.216,0.119,0.076,north,3.9,No
2022/07/20,09:20,0.149,0.140,0.220,0.213,0.216,0.119,0.076,north,4.5,No
2022/07/20,09:30,0.150,0.140,0.220,0.211,0.215,0.119,0.076,north,3.6,No
2022/07/20,09:40,0.150,0.140,0.221,0.214,0.214,0.119,0.076,north-northeast,3.3,No
2022/07/20,09:50,0.150,0.141,0.219,0.213,0.216,0.120,0.076,north-northeast,3.8,No
2022/07/20,10:00,0.150,0.140,0.220,0.212,0.214,0.120,0.077,north-northeast,3.2,No
2022/07/20,10:10,0.150,0.140,0.221,0.212,0.214,0.120,0.077,north,3.1,No
2022/07/20,10:20,0.150,0.141,0.221,0.214,0.215,0.119,0.077,north,3.8,No
2022/07/20,10:30,0.149,0.140,0.222,0.213,0.215,0.119,0.077,north,3.7,No
2022/07/20,10:40,0.149,0.140,0.220,0.213,0.215,0.119,0.077,north,2.6,No
2022/07/20,10:50,0.150,0.139,0.221,0.213,0.216,0.119,0.077,west-northwest,1.3,No
2022/07/20,11:00,0.151,0.142,0.222,0.214,0.215,0.119,0.077,north-northeast,1.3,No
2022/07/20,11:10,0.150,0.141,0.221,0.213,0.215,0.119,0.077,north,1.3,No
2022/07/20,11:20,0.149,0.142,0.222,0.213,0.215,0.119,0.077,north,2.3,No
2022/07/20,11:30,0.149,0.141,0.221,0.213,0.215,0.118,0.077,north,3.3,No
2022/07/20,11:40,0.151,0.141,0.221,0.213,0.215,0.119,0.077,north,2.0,No
2022/07/20,11:50,0.151,0.140,0.222,0.213,0.214,0.119,0.077,west-northwest,4.1,No
2022/07/20,12:00,0.150,0.141,0.223,0.213,0.215,0.119,0.077,west-northwest,6.6,No
2022/07/20,12:10,0.149,0.141,0.224,0.216,0.217,0.120,0.077,west-northwest,6.1,No
2022/07/20,12:20,0.150,0.141,0.224,0.215,0.216,0.120,0.078,northwest,4.9,No
2022/07/20,12:30,0.151,0.142,0.224,0.216,0.216,0.120,0.077,northwest,2.5,No
2022/07/20,12:40,0.151,0.141,0.224,0.218,0.218,0.120,0.077,north,2.7,No
2022/07/20,12:50,0.150,0.142,0.225,0.216,0.216,0.120,0.077,north-northeast,3.0,No
2022/07/20,13:00,0.152,0.141,0.223,0.216,0.215,0.120,0.077,northeast,4.5,No
2022/07/20,13:10,0.151,0.141,0.222,0.216,0.215,0.120,0.078,north-northeast,2.4,No
2022/07/20,13:20,0.152,0.141,0.224,0.215,0.216,0.120,0.077,northeast,3.6,No
2022/07/20,13:30,0.152,0.142,0.223,0.216,0.217,0.121,0.077,northeast,2.8,No
2022/07/20,13:40,0.150,0.142,0.223,0.214,0.215,0.120,0.077,northeast,3.1,No
2022/07/20,13:50,0.150,0.140,0.222,0.214,0.216,0.120,0.078,northeast,3.6,No
2022/07/20,14:00,0.151,0.142,0.222,0.214,0.214,0.120,0.077,east-northeast,4.0,No
2022/07/20,14:10,0.151,0.141,0.221,0.212,0.214,0.120,0.077,east-northeast,2.2,No
2022/07/20,14:20,0.150,0.142,0.221,0.214,0.215,0.119,0.077,east-northeast,1.5,No
2022/07/20,14:30,0.150,0.142,0.221,0.213,0.214,0.119,0.078,-,CALM,No
2022/07/20,14:40,0.151,0.141,0.222,0.214,0.214,0.119,0.077,southwest,1.4,No
2022/07/20,14:50,0.151,0.142,0.222,0.214,0.215,0.120,0.077,southeast,3.2,No
2022/07/20,15:00,0.152,0.142,0.222,0.215,0.217,0.120,0.077,south-southeast,2.4,No
2022/07/20,15:10,0.152,0.142,0.223,0.215,0.216,0.120,0.078,south-southeast,1.9,No
2022/07/20,15:20,0.152,0.141,0.224,0.214,0.215,0.120,0.077,south-southeast,2.4,No
2022/07/20,15:30,0.150,0.140,0.223,0.214,0.215,0.121,0.077,south-southeast,2.3,No
2022/07/20,15:40,0.150,0.142,0.222,0.214,0.215,0.119,0.077,south-southwest,3.0,No
2022/07/20,15:50,0.150,0.141,0.221,0.214,0.215,0.119,0.076,south,3.1,No
2022/07/20,16:00,0.150,0.140,0.223,0.214,0.216,0.119,0.077,south,2.7,No
2022/07/20,16:10,0.150,0.141,0.222,0.213,0.214,0.118,0.077,south,1.8,No
2022/07/20,16:20,0.150,0.141,0.222,0.213,0.215,0.119,0.077,southeast,2.2,No
2022/07/20,16:30,0.151,0.141,0.221,0.214,0.216,0.120,0.077,south-southeast,1.1,No
2022/07/20,16:40,0.152,0.141,0.222,0.213,0.216,0.119,0.077,-,CALM,No
2022/07/20,16:50,0.151,0.140,0.222,0.213,0.216,0.120,0.077,south-southeast,1.4,No
2022/07/20,17:00,0.152,0.141,0.222,0.215,0.215,0.120,0.078,south-southeast,1.1,No
2022/07/20,17:10,0.151,0.140,0.221,0.218,0.215,0.120,0.078,south-southeast,1.4,No
2022/07/20,17:20,0.152,0.140,0.222,0.216,0.216,0.120,0.077,south-southeast,1.2,No
2022/07/20,17:30,0.149,0.140,0.223,0.216,0.215,0.120,0.077,east-southeast,2.2,No
2022/07/20,17:40,0.150,0.141,0.225,0.215,0.215,0.119,0.076,northwest,1.2,No
2022/07/20,17:50,0.150,0.142,0.224,0.214,0.215,0.120,0.076,northwest,1.6,No
2022/07/20,18:00,0.150,0.143,0.224,0.213,0.215,0.121,0.077,west-northwest,2.0,No
2022/07/20,18:10,0.149,0.142,0.222,0.217,0.216,0.119,0.077,west-northwest,2.2,No
2022/07/20,18:20,0.150,0.140,0.221,0.216,0.215,0.119,0.077,northwest,0.9,No
2022/07/20,18:30,0.152,0.140,0.221,0.214,0.214,0.120,0.076,north-northwest,0.9,No
2022/07/20,18:40,0.153,0.142,0.223,0.212,0.215,0.121,0.078,northwest,1.6,No
2022/07/20,18:50,0.151,0.143,0.224,0.216,0.214,0.120,0.077,northwest,3.5,No
2022/07/20,19:00,0.150,0.141,0.222,0.215,0.218,0.119,0.076,northwest,3.5,No
2022/07/20,19:10,0.151,0.141,0.221,0.215,0.218,0.120,0.077,northwest,3.0,No
2022/07/20,19:20,0.154,0.143,0.225,0.213,0.216,0.120,0.077,north-northwest,2.8,No
2022/07/20,19:30,0.151,0.141,0.225,0.216,0.214,0.120,0.078,north-northwest,3.6,No
2022/07/20,19:40,0.150,0.141,0.223,0.216,0.216,0.119,0.077,north-northwest,3.5,No
2022/07/20,19:50,0.152,0.142,0.222,0.213,0.218,0.120,0.078,east-northeast,2.4,No
2022/07/20,20:00,0.152,0.140,0.224,0.214,0.215,0.119,0.077,northeast,2.7,No
2022/07/20,20:10,0.151,0.140,0.223,0.218,0.215,0.119,0.076,northeast,2.7,No
2022/07/20,20:20,0.150,0.142,0.221,0.214,0.218,0.120,0.076,northeast,3.8,No
2022/07/20,20:30,0.152,0.141,0.225,0.215,0.216,0.120,0.077,northeast,2.7,No
2022/07/20,20:40,0.152,0.140,0.224,0.218,0.215,0.120,0.077,north-northeast,2.4,No
2022/07/20,20:50,0.149,0.141,0.222,0.214,0.215,0.120,0.076,north-northeast,2.2,No
2022/07/20,21:00,0.150,0.141,0.225,0.213,0.215,0.120,0.077,north-northeast,1.9,No
2022/07/20,21:10,0.151,0.140,0.224,0.216,0.215,0.118,0.077,northeast,1.8,No
2022/07/20,21:20,0.150,0.142,0.221,0.216,0.213,0.119,0.077,north-northeast,2.6,No
2022/07/20,21:30,0.150,0.142,0.223,0.213,0.218,0.120,0.076,north-northeast,2.0,No
2022/07/20,21:40,0.151,0.140,0.225,0.215,0.216,0.119,0.077,north,1.9,No
2022/07/20,21:50,0.150,0.141,0.221,0.216,0.214,0.119,0.077,north,2.3,No
2022/07/20,22:00,0.150,0.142,0.222,0.213,0.216,0.120,0.077,north,1.8,No
2022/07/20,22:10,0.152,0.140,0.224,0.214,0.216,0.119,0.076,north,2.1,No
2022/07/20,22:20,0.152,0.142,0.221,0.216,0.215,0.119,0.077,north,2.1,No
2022/07/20,22:30,0.150,0.141,0.221,0.214,0.214,0.120,0.077,north,2.4,No
2022/07/20,22:40,0.152,0.141,0.224,0.213,0.218,0.119,0.077,north,1.6,No
2022/07/20,22:50,0.152,0.142,0.224,0.216,0.216,0.119,0.077,north-northeast,1.3,No
2022/07/20,23:00,0.150,0.141,0.223,0.215,0.213,0.120,0.076,northeast,1.4,No
2022/07/20,23:10,0.151,0.141,0.224,0.214,0.216,0.119,0.077,north-northeast,1.0,No
2022/07/20,23:20,0.151,0.141,0.222,0.215,0.215,0.119,0.077,northeast,1.2,No
2022/07/20,23:30,0.150,0.142,0.222,0.215,0.213,0.119,0.076,northeast,0.7,No
2022/07/20,23:40,0.149,0.140,0.224,0.213,0.216,0.120,0.077,east,0.9,No
2022/07/20,23:50,0.153,0.141,0.223,0.217,0.216,0.119,0.076,north-northeast,1.8,No
